In Rescue
 
Open Full Screen Window  High Contrast Mode
Wind Gusting 20 knots
15
March 01, 2024 2:44 PM EST
Weather Information
Wind Direction
  220 °
Wind Speed
  15 kt (17 mph)
Wind Gust
  20 kt (23 mph)
Altimeter
30.12 in
Visibility
10 SM
Temperature
08° C
46° F
Dewpoint
-07° C
19° F
Humidity
34%
Sky Condition
Clear
VFR

METAR KLDM 011944Z AUTO 22015G20KT 10SM CLR 08/M07 A3012 RMK AO2 T00801070

FAA Disclaimer: The data displayed is for advisory purposes only and is not to be used for flight planning or operations.